Location: Fort Wayne
(41.1310°N, 85.1290°W)
Time: 02:18:51
(UTC-04:00)

Cosmos 2056 Rocket - Visible Passes

Search period start: 26 April 2015 00:00
Search period end: 06 May 2015 00:00
Orbit: 742 x 802 km, 74.0° (Epoch: 25 April)

Date Brightness Start Highest point End Pass type
(mag) Time Alt. Az. Time Alt. Az. Time Alt. Az.
26 Apr 4.3 22:12:56 10° NNW 22:18:13 52° WSW 22:22:24 16° S visible
27 Apr 3.6 21:37:01 10° NNW 21:42:29 86° WSW 21:47:53 10° SSE visible
28 Apr 3.8 21:01:17 10° NNW 21:06:39 58° ENE 21:12:00 10° SSE visible
28 Apr 6.0 22:44:46 10° NW 22:48:23 18° W 22:51:45 10° SW visible
29 Apr 5.3 22:08:07 10° NW 22:12:48 29° W 22:17:20 10° SSW visible
30 Apr 4.5 21:31:55 10° NNW 21:37:08 48° WSW 21:42:18 10° S visible
02 May 6.2 22:03:54 10° WNW 22:07:16 16° W 22:10:24 10° SW visible
03 May 5.6 21:27:09 10° NW 21:31:42 27° W 21:36:06 10° SSW visible
